DW2465 Weather Reports


time (UTC)temp
C
wind
direction
speed
KPH
gust
KPH
rain 1hr
cm
rain 24hr
cm
rain mn
cm
humidity
%
barometer
mb
20220927010056 12 294 0.0 0.0 0.00 0.00 0.00 55 1016.5
20220927004556 13 286 0.0 0.0 0.00 0.00 0.00 54 1016.4
20220927003101 13 291 0.0 0.0 0.00 0.00 0.00 51 1016.3
20220927001554 13 294 0.0 0.0 0.00 0.00 0.00 49 1016.2
20220927000054 14 303 0.0 1.6 0.00 0.00 0.00 47 1016.2
20220926234550 15 261 0.0 14.5 0.00 0.00 0.00 45 1016.2
20220926233050 15 302 1.6 22.5 0.00 0.00 0.00 44 1016.3
20220926231548 15 298 0.0 25.7 0.00 0.00 0.00 44 1016.3
20220926230048 16 327 6.4 25.7 0.00 0.00 0.00 43 1016.0
20220926224547 16 36 0.0 25.7 0.00 0.00 0.00 44 1016.2
20220926223057 16 320 0.0 22.5 0.00 0.00 0.00 44 1016.3
20220926221520 16 271 0.0 22.5 0.00 0.00 0.00 43 1016.2
20220926220016 16 304 8.0 32.2 0.00 0.00 0.00 41 1016.4
20220926214513 16 269 11.3 33.8 0.00 0.00 0.00 41 1016.4
20220926213012 16 298 11.3 30.6 0.00 0.00 0.00 39 1016.3
20220926211512 16 302 3.2 32.2 0.00 0.00 0.00 39 1016.4
20220926210012 16 319 12.9 33.8 0.00 0.00 0.00 38 1016.2
20220926204508 16 343 1.6 27.4 0.00 0.00 0.00 39 1016.2
20220926203017 15 301 6.4 27.4 0.00 0.00 0.00 40 1016.2
20220926201503 15 318 1.6 25.7 0.00 0.00 0.00 41 1016.4
20220926200003 15 342 0.0 24.1 0.00 0.00 0.00 41 1016.3
20220926194559 15 296 3.2 22.5 0.00 0.00 0.00 41 1016.2
20220926193129 15 327 8.0 22.5 0.00 0.00 0.00 42 1016.3
20220926191626 15 263 8.0 29.0 0.00 0.00 0.00 43 1016.7
20220926190055 15 281 3.2 29.0 0.00 0.00 0.00 43 1016.9
20220926184551 14 243 4.8 24.1 0.00 0.00 0.00 46 1017.0
20220926183059 14 306 0.0 24.1 0.00 0.00 0.00 48 1016.9
20220926181551 14 360 11.3 27.4 0.00 0.00 0.00 47 1017.0
20220926180055 13 280 0.0 25.7 0.00 0.00 0.00 50 1016.9
20220926174542 13 298 12.9 27.4 0.00 0.00 0.00 50 1017.0
20220926173047 13 296 8.0 29.0 0.00 0.00 0.00 50 1017.1
20220926171539 13 323 3.2 30.6 0.00 0.00 0.00 52 1017.0
20220926170038 13 250 1.6 20.9 0.00 0.00 0.00 54 1017.1
20220926164506 12 283 0.0 27.4 0.00 0.00 0.00 51 1017.2
20220926163004 12 323 3.2 29.0 0.00 0.00 0.00 52 1017.2
20220926161605 12 11 1.6 33.8 0.00 0.00 0.00 52 1017.2
20220926160112 12 320 6.4 29.0 0.00 0.00 0.00 54 1017.3
20220926154559 11 284 4.8 27.4 0.00 0.00 0.00 59 1017.4
20220926153056 11 296 11.3 37.0 0.00 0.00 0.00 60 1017.3
20220926151559 11 309 14.5 32.2 0.00 0.00 0.00 61 1017.3
20220926150047 11 268 12.9 32.2 0.00 0.00 0.00 62 1017.2
20220926144548 11 313 1.6 29.0 0.00 0.00 0.00 64 1017.2
20220926144545 11 300 1.6 29.0 0.00 0.00 0.00 64 1017.2
20220926143041 10 333 11.3 35.4 0.00 0.00 0.00 65 1017.1
20220926141544 10 336 9.7 30.6 0.00 0.00 0.00 67 1017.1
20220926140043 10 337 3.2 19.3 0.00 0.00 0.00 70 1016.9
20220926134545 9 276 0.0 6.4 0.00 0.00 0.00 72 1016.8
20220926133033 8 292 0.0 17.7 0.00 0.00 0.00 74 1016.6
20220926131554 8 296 0.0 12.9 0.00 0.00 0.00 76 1016.5
20220926130049 7 294 0.0 1.6 0.00 0.00 0.00 77 1016.3
20220926124527 7 295 0.0 1.6 0.00 0.00 0.00 77 1016.2
20220926123025 7 296 0.0 1.6 0.00 0.00 0.00 78 1016.1
20220926121528 7 309 0.0 12.9 0.00 0.00 0.00 77 1015.8
20220926120056 7 300 0.0 14.5 0.00 0.00 0.00 78 1015.7
20220926114550 7 270 0.0 11.3 0.00 0.00 0.00 78 1015.6
20220926113019 7 267 0.0 1.6 0.00 0.00 0.00 77 1015.4
20220926111518 7 261 0.0 12.9 0.00 0.00 0.00 76 1015.4
20220926110018 7 295 0.0 0.0 0.00 0.00 0.00 76 1015.3
20220926104521 7 273 0.0 0.0 0.00 0.00 0.00 76 1015.2
20220926103021 7 288 0.0 4.8 0.00 0.00 0.00 75 1015.1
20220926101510 7 262 0.0 0.0 0.00 0.00 0.00 75 1015.1
20220926100106 7 281 0.0 0.0 0.00 0.00 0.00 74 1015.2
20220926094539 7 297 0.0 1.6 0.00 0.00 0.00 74 1014.9
20220926093020 7 300 0.0 8.0 0.00 0.00 0.00 74 1014.8
20220926091504 7 279 0.0 3.2 0.00 0.00 0.00 74 1014.7
20220926090100 7 274 0.0 0.0 0.00 0.00 0.00 73 1014.7
20220926084611 8 272 0.0 6.4 0.00 0.00 0.00 73 1014.6
20220926083056 8 270 0.0 0.0 0.00 0.00 0.00 72 1014.5
20220926081609 8 281 0.0 9.7 0.00 0.00 0.00 71 1014.5
20220926080036 8 263 0.0 0.0 0.00 0.00 0.00 69 1014.4
20220926074521 8 296 0.0 0.0 0.00 0.00 0.00 68 1014.4
20220926073021 8 291 0.0 9.7 0.00 0.00 0.00 68 1014.3
20220926071515 9 281 0.0 0.0 0.00 0.00 0.00 67 1014.3
20220926070011 9 292 0.0 12.9 0.00 0.00 0.00 65 1014.5
20220926064510 10 273 0.0 1.6 0.00 0.00 0.00 63 1014.3
20220926063044 10 315 0.0 16.1 0.00 0.00 0.00 63 1014.4
20220926061537 10 295 0.0 6.4 0.00 0.00 0.00 63 1014.3
20220926060006 10 292 0.0 12.9 0.00 0.00 0.00 62 1014.3
20220926054504 10 306 0.0 4.8 0.00 0.00 0.00 61 1014.2
20220926053059 10 291 0.0 17.7 0.00 0.00 0.00 61 1014.3
20220926051557 11 309 0.0 16.1 0.00 0.00 0.00 60 1014.4
20220926050055 11 320 0.0 11.3 0.00 0.00 0.00 60 1014.4
20220926044556 11 292 0.0 6.4 0.00 0.00 0.00 61 1014.4
20220926043054 11 294 0.0 12.9 0.00 0.00 0.00 61 1014.4
20220926041552 11 302 0.0 6.4 0.00 0.00 0.00 62 1014.4
20220926040103 11 276 0.0 6.4 0.00 0.00 0.00 61 1014.3
20220926034603 12 286 0.0 14.5 0.00 0.00 0.00 60 1014.1
20220926033140 12 283 0.0 0.0 0.00 0.00 0.00 57 1014.0
20220926031551 12 288 0.0 9.7 0.00 0.00 0.00 56 1014.0
20220926030057 13 302 0.0 19.3 0.00 0.00 0.00 55 1013.9
20220926024605 13 277 0.0 19.3 0.00 0.00 0.00 54 1013.9
20220926023013 13 281 1.6 24.1 0.00 0.00 0.00 53 1013.9
20220926021512 13 296 1.6 22.5 0.00 0.00 0.00 53 1013.8
20220926020012 13 313 3.2 33.8 0.00 0.00 0.00 53 1013.8
20220926014508 14 301 1.6 20.9 0.00 0.00 0.00 53 1013.6
20220926013006 14 301 3.2 17.7 0.00 0.00 0.00 52 1013.4
20220926011508 15 296 1.6 24.1 0.00 0.00 0.00 51 1013.3